Simultaneous Nadir Overpasses (SNOs) Predictions

Prediction of SNOs between NOAA-19 and TERRA Satellite Orbit:

Table of predicted SNOs for the next 14.0 days since TLE Epoch: 12/14/2013
Index Date (NOAA-19) Time (NOAA-19) Lat,Lon (NOAA-19) SZA (NOAA-19 ) Date (TERRA) Time (TERRA) Lat,Lon (TERRA) SZA (TERRA ) Distance(km) Time Diff (sec)
1 12/15/2013 20:13:39 70.04,-122.89 93.24 12/15/2013 20:14:42 70.07,-122.89 93.27 2.74 63
2 12/15/2013 21:04:40 -69.93, 44.51 86.87 12/15/2013 21:04:12 -69.95, 44.58 86.85 3.31 28
3 12/18/2013 00:57:53 70.39, 165.54 93.67 12/18/2013 00:59:04 70.27, 166.30 93.56 31.16 71
4 12/18/2013 01:48:47 -69.94, -26.51 86.78 12/18/2013 01:48:38 -69.94, -26.53 86.78 1.01 9
5 12/20/2013 06:32:55 -70.01, -97.62 86.67 12/20/2013 06:33:06 -69.99, -97.58 86.69 2.30 11
6 12/20/2013 07:23:49 69.59, 70.26 92.92 12/20/2013 07:22:37 69.68, 69.63 93.00 26.74 72
7 12/22/2013 11:17:02 -70.03,-168.67 86.64 12/22/2013 11:17:37 -70.05,-168.64 86.63 1.64 35
8 12/22/2013 12:08:02 69.90, -1.22 93.23 12/22/2013 12:07:05 69.90, -1.20 93.23 0.70 57
9 12/24/2013 16:01:09 -70.07, 120.27 86.64 12/24/2013 16:02:11 -70.10, 120.28 86.61 3.46 62
10 12/24/2013 16:52:10 69.95, -72.32 93.25 12/24/2013 16:51:39 69.95, -72.28 93.25 1.45 31
11 12/26/2013 20:45:30 -70.83, 48.01 85.94 12/26/2013 20:46:38 -70.70, 50.00 86.08 74.62 68
12 12/26/2013 21:36:18 70.02,-143.42 93.24 12/26/2013 21:36:16 70.01,-143.36 93.23 2.66 2
